DJ8HS-13 Weather Reports


time (UTC)temp
C
wind
direction
speed
KPH
gust
KPH
rain 1hr
cm
rain 24hr
cm
rain mn
cm
humidity
%
barometer
mb
20260506233928 11 343 1.6 6.4 0.00 0.13 0.13 79
20260506233428 11 246 4.8 4.8 0.00 0.13 0.13 79
20260506232928 11 282 0.0 8.0 0.00 0.13 0.13 79
20260506232428 11 320 3.2 14.5 0.00 0.13 0.13 79
20260506231928 11 299 1.6 9.7 0.00 0.13 0.13 79
20260506231428 11 350 1.6 9.7 0.00 0.13 0.13 79
20260506230928 11 293 1.6 9.7 0.00 0.13 0.13 79
20260506230428 11 123 0.0 12.9 0.00 0.13 0.13 79
20260506225928 11 19 1.6 4.8 0.00 0.13 0.13 79
20260506225428 11 323 0.0 6.4 0.00 0.13 0.13 79
20260506224928 11 246 0.0 9.7 0.00 0.13 0.13 79
20260506224428 11 323 1.6 8.0 0.00 0.13 0.13 79
20260506223928 11 236 3.2 12.9 0.00 0.13 0.13 78
20260506223428 11 305 0.0 0.0 0.00 0.13 0.13 79
20260506222928 11 305 0.0 14.5 0.00 0.13 0.13 79
20260506222428 12 299 3.2 12.9 0.00 0.13 0.13 79
20260506221928 12 322 0.0 6.4 0.00 0.13 0.13 79
20260506221428 12 331 1.6 9.7 0.00 0.13 0.13 79
20260506220928 12 313 1.6 3.2 0.00 0.23 0.13 79
20260506220428 12 268 0.0 4.8 0.00 0.23 0.13 79
20260506215928 12 355 1.6 8.0 0.00 0.23 0.13 79
20260506215428 12 316 1.6 4.8 0.00 0.23 0.13 79
20260506214928 12 317 3.2 4.8 0.00 0.23 0.13 79
20260506214428 12 239 0.0 11.3 0.00 0.23 0.13 79
20260506213928 12 184 3.2 9.7 0.00 0.23 0.13 78
20260506213428 12 305 0.0 3.2 0.00 0.23 0.13 78
20260506212928 12 316 1.6 3.2 0.00 0.23 0.13 78
20260506212428 12 261 0.0 9.7 0.00 0.23 0.13 78
20260506211928 12 323 0.0 11.3 0.00 0.23 0.13 78
20260506211428 12 229 0.0 4.8 0.00 0.23 0.13 78
20260506210928 12 310 1.6 9.7 0.00 0.25 0.13 78
20260506210428 12 18 0.0 4.8 0.00 0.25 0.13 78
20260506205928 12 99 0.0 3.2 0.00 0.25 0.13 78
20260506205428 12 9 1.6 4.8 0.00 0.25 0.13 78
20260506204928 12 330 1.6 6.4 0.00 0.25 0.13 78
20260506204428 12 354 0.0 4.8 0.00 0.25 0.13 78
20260506203928 12 265 0.0 0.0 0.00 0.25 0.13 79
20260506203428 12 265 0.0 9.7 0.00 0.25 0.13 78
20260506202928 12 275 4.8 8.0 0.00 0.25 0.13 78
20260506202428 12 288 0.0 3.2 0.00 0.25 0.13 78
20260506201928 12 315 0.0 6.4 0.00 0.25 0.13 78
20260506201428 12 330 1.6 6.4 0.00 0.25 0.13 78
20260506200928 13 216 1.6 3.2 0.00 0.25 0.13 78
20260506200428 12 268 0.0 11.3 0.00 0.25 0.13 78
20260506195928 13 268 0.0 1.6 0.00 0.25 0.13 77
20260506195428 13 282 0.0 4.8 0.00 0.25 0.13 77
20260506194928 13 357 0.0 3.2 0.00 0.25 0.13 77
20260506194428 13 286 0.0 3.2 0.00 0.25 0.13 77
20260506193928 13 303 0.0 3.2 0.00 0.25 0.13 77
20260506193428 13 11 0.0 4.8 0.00 0.25 0.13 77
20260506192928 13 330 1.6 8.0 0.00 0.25 0.13 77
20260506192428 13 135 0.0 3.2 0.00 0.25 0.13 77
20260506191928 13 285 0.0 4.8 0.00 0.25 0.13 77
20260506191428 13 357 0.0 0.0 0.00 0.25 0.13 77
20260506190928 13 357 0.0 0.0 0.00 0.25 0.13 77
20260506190428 13 357 0.0 0.0 0.00 0.25 0.13 77
20260506185928 13 357 0.0 4.8 0.00 0.25 0.13 77
20260506185428 13 338 0.0 6.4 0.00 0.25 0.13 77
20260506184928 13 30 0.0 8.0 0.00 0.25 0.13 77
20260506184428 13 109 0.0 6.4 0.03 0.25 0.13 77
20260506183928 13 341 1.6 8.0 0.03 0.25 0.13 77
20260506183429 14 32 0.0 6.4 0.03 0.25 0.13 77
20260506182928 14 98 1.6 6.4 0.03 0.25 0.13 77
20260506182428 14 68 3.2 6.4 0.03 0.25 0.13 77
20260506181928 14 5 1.6 4.8 0.03 0.25 0.13 77
20260506181429 14 350 3.2 6.4 0.03 0.25 0.13 77
20260506180929 14 12 0.0 8.0 0.03 0.25 0.13 77
20260506180429 14 185 0.0 11.3 0.03 0.25 0.13 77
20260506175929 15 21 0.0 8.0 0.03 0.25 0.13 77
20260506175429 15 167 3.2 9.7 0.03 0.25 0.13 77
20260506174929 15 343 1.6 8.0 0.05 0.25 0.13 77
20260506174429 15 289 4.8 9.7 0.03 0.23 0.10 76
20260506173929 15 331 3.2 9.7 0.03 0.23 0.10 76
20260506173429 15 12 4.8 8.0 0.03 0.23 0.10 76
20260506172929 15 347 0.0 6.4 0.05 0.23 0.10 76
20260506172429 15 330 4.8 8.0 0.05 0.23 0.10 76
20260506171929 15 344 3.2 11.3 0.05 0.23 0.10 76
20260506171429 15 329 1.6 8.0 0.08 0.23 0.10 76
20260506170929 15 14 1.6 9.7 0.08 0.23 0.10 75
20260506170429 16 292 0.0 6.4 0.10 0.23 0.10 75
20260506165929 16 5 3.2 8.0 0.10 0.23 0.10 75
20260506165429 16 336 1.6 8.0 0.10 0.23 0.10 75
20260506164929 16 39 1.6 9.7 0.08 0.20 0.08 75
20260506164429 16 67 1.6 9.7 0.08 0.20 0.08 75
20260506163929 16 340 4.8 11.3 0.08 0.20 0.08 75
20260506163429 16 279 6.4 8.0 0.08 0.20 0.08 75
20260506162929 16 289 0.0 9.7 0.05 0.18 0.05 75
20260506162429 16 8 1.6 6.4 0.05 0.18 0.05 74
20260506161929 17 26 0.0 6.4 0.05 0.18 0.05 74
20260506161429 17 18 3.2 8.0 0.03 0.15 0.03 72
20260506160929 17 323 1.6 6.4 0.03 0.18 0.03 70
20260506160429 17 246 0.0 8.0 0.00 0.15 0.00 69
20260506155929 17 334 0.0 4.8 0.00 0.15 0.00 69
20260506155429 17 348 3.2 4.8 0.00 0.15 0.00 69
20260506154929 17 270 4.8 4.8 0.00 0.15 0.00 69
20260506154429 17 358 3.2 8.0 0.00 0.15 0.00 68
20260506153929 18 312 1.6 8.0 0.00 0.15 0.00 68
20260506153429 18 5 3.2 8.0 0.00 0.15 0.00 67
20260506152929 18 0 1.6 8.0 0.00 0.15 0.00 67
20260506152429 18 333 3.2 9.7 0.00 0.15 0.00 66
20260506151929 18 295 0.0 11.3 0.00 0.15 0.18 65
20260506151429 18 298 1.6 9.7 0.00 0.15 0.18 63
20260506150929 18 327 6.4 12.9 0.00 0.18 0.18 63
20260506150429 18 278 3.2 8.0 0.00 0.18 0.18 62
20260506145929 18 310 3.2 12.9 0.00 0.18 0.18 62
20260506145429 18 291 4.8 14.5 0.00 0.18 0.18 61
20260506144929 18 11 1.6 9.7 0.00 0.18 0.18 61
20260506144429 19 191 1.6 14.5 0.00 0.18 0.18 60
20260506143929 19 268 3.2 12.9 0.00 0.18 0.18 59
20260506143429 19 182 1.6 14.5 0.00 0.18 0.18 57
20260506142929 20 194 1.6 12.9 0.00 0.18 0.18 56
20260506142429 20 291 3.2 12.9 0.00 0.18 0.18 56
20260506141929 20 296 3.2 8.0 0.00 0.18 0.18 54
20260506141429 20 234 0.0 4.8 0.00 0.18 0.18 54
20260506140929 20 181 0.0 6.4 0.00 0.20 0.18 53
20260506140429 20 267 4.8 8.0 0.00 0.20 0.18 53
20260506135929 20 265 1.6 11.3 0.00 0.20 0.18 52
20260506135429 20 25 0.0 3.2 0.00 0.20 0.18 53
20260506134929 20 230 1.6 8.0 0.00 0.20 0.18 51
20260506134429 21 223 1.6 8.0 0.00 0.20 0.18 51
20260506133929 21 222 4.8 11.3 0.00 0.20 0.18 51
20260506133429 21 181 1.6 4.8 0.00 0.20 0.18 52
20260506132929 20 255 4.8 6.4 0.00 0.20 0.18 52
20260506132429 20 233 1.6 11.3 0.00 0.20 0.18 51
20260506131929 21 261 4.8 11.3 0.00 0.20 0.18 50
20260506131429 21 243 0.0 12.9 0.00 0.20 0.18 51
20260506130929 21 70 1.6 12.9 0.00 0.20 0.18 51
20260506130429 21 251 3.2 11.3 0.00 0.20 0.18 52
20260506125929 21 105 0.0 8.0 0.00 0.20 0.18 52
20260506125429 21 267 1.6 9.7 0.00 0.20 0.18 51
20260506124929 21 258 0.0 8.0 0.00 0.20 0.18 51
20260506124429 21 233 1.6 6.4 0.00 0.20 0.18 50
20260506123929 21 278 0.0 4.8 0.00 0.20 0.18 51
20260506123429 21 215 1.6 9.7 0.00 0.20 0.18 51
20260506122929 21 219 0.0 8.0 0.00 0.20 0.18 51
20260506122429 21 309 3.2 11.3 0.00 0.20 0.18 51
20260506121929 21 181 3.2 6.4 0.00 0.20 0.18 52
20260506121429 21 216 0.0 9.7 0.00 0.20 0.18 50
20260506120929 21 187 0.0 11.3 0.00 0.20 0.18 50
20260506120429 21 143 1.6 9.7 0.00 0.20 0.18 50
20260506115929 21 260 1.6 9.7 0.00 0.20 0.18 49
20260506115429 22 180 1.6 12.9 0.00 0.20 0.18 49
20260506114929 22 220 1.6 8.0 0.00 0.20 0.18 50
20260506114429 21 229 0.0 8.0 0.00 0.20 0.18 50
20260506113929 21 199 4.8 9.7 0.00 0.20 0.18 50
20260506113429 21 85 1.6 12.9 0.00 0.20 0.18 50
20260506112929 21 267 0.0 12.9 0.00 0.20 0.18 49
20260506112429 21 177 3.2 11.3 0.00 0.20 0.18 50
20260506111929 21 255 1.6 9.7 0.00 0.20 0.18 49
20260506111429 21 225 4.8 9.7 0.00 0.20 0.18 51
20260506110929 21 232 0.0 14.5 0.00 0.20 0.18 51
20260506110429 21 215 4.8 9.7 0.00 0.20 0.18 51
20260506105929 21 277 3.2 9.7 0.00 0.20 0.18 51
20260506105429 21 284 3.2 11.3 0.00 0.20 0.18 53
20260506104929 21 244 0.0 9.7 0.00 0.20 0.18 52
20260506104429 21 298 8.0 12.9 0.00 0.20 0.18 51
20260506103930 21 310 3.2 11.3 0.00 0.20 0.18 52
20260506103429 21 234 4.8 11.3 0.00 0.20 0.18 54
20260506102929 20 149 1.6 11.3 0.00 0.20 0.18 53
20260506102429 21 322 0.0 8.0 0.00 0.20 0.18 52
20260506101929 21 230 4.8 12.9 0.00 0.20 0.18 52
20260506101429 21 230 1.6 6.4 0.00 0.20 0.18 52
20260506100929 21 137 4.8 14.5 0.00 0.20 0.18 52
20260506100429 21 198 1.6 11.3 0.00 0.20 0.18 52
20260506095929 21 324 1.6 6.4 0.00 0.20 0.18 52
20260506095429 21 113 3.2 14.5 0.00 0.20 0.18 53
20260506094930 21 177 4.8 12.9 0.00 0.20 0.18 53
20260506094429 21 258 1.6 12.9 0.00 0.20 0.18 56
20260506093929 20 279 1.6 6.4 0.00 0.20 0.18 57
20260506093429 20 158 3.2 9.7 0.00 0.20 0.18 58
20260506092930 19 208 3.2 11.3 0.00 0.20 0.18 58
20260506092430 18 181 3.2 9.7 0.00 0.20 0.18 60
20260506091930 18 202 1.6 9.7 0.00 0.20 0.18 60
20260506091430 18 248 0.0 8.0 0.00 0.20 0.18 60
20260506090930 18 350 1.6 9.7 0.00 0.20 0.18 60
20260506090430 18 174 6.4 12.9 0.00 0.20 0.18 59
20260506085930 18 192 1.6 9.7 0.00 0.20 0.18 61
20260506085430 18 119 0.0 6.4 0.00 0.20 0.18 61
20260506084930 18 203 4.8 9.7 0.00 0.20 0.18 60
20260506084430 18 212 4.8 11.3 0.00 0.20 0.18 60
20260506083930 18 233 4.8 14.5 0.00 0.20 0.18 61
20260506083430 18 275 3.2 14.5 0.00 0.20 0.18 61
20260506082930 18 227 9.7 12.9 0.00 0.20 0.18 61
20260506082430 18 172 1.6 11.3 0.00 0.20 0.18 61
20260506081930 18 302 4.8 19.3 0.00 0.20 0.18 61
20260506081430 18 345 8.0 8.0 0.00 0.20 0.18 63
20260506080930 18 247 1.6 12.9 0.00 0.20 0.18 64
20260506080430 18 236 0.0 11.3 0.00 0.20 0.18 65
20260506073430 18 354 3.2 8.0 0.00 0.20 0.18 65
20260506072930 18 291 3.2 11.3 0.00 0.20 0.18 65
20260506072430 18 219 3.2 11.3 0.00 0.20 0.18 65
20260506071930 18 248 0.0 9.7 0.00 0.20 0.18 66
20260506071430 18 199 3.2 9.7 0.00 0.20 0.18 65
20260506070930 18 184 3.2 8.0 0.00 0.20 0.18 65
20260506070430 18 198 1.6 9.7 0.00 0.20 0.18 65
20260506062430 16 156 0.0 12.9 0.00 0.20 0.18 80
20260506061930 16 144 0.0 6.4 0.00 0.20 0.18 80
20260506061430 16 150 0.0 8.0 0.00 0.20 0.18 80
20260506060930 16 175 0.0 6.4 0.00 0.20 0.18 80
20260506060430 16 229 0.0 11.3 0.00 0.20 0.18 81
20260506050930 13 146 0.0 3.2 0.00 0.20 0.18 88
20260506050430 13 167 0.0 1.6 0.00 0.20 0.18 88
20260506044930 13 140 0.0 0.0 0.00 0.20 0.18 88
20260506044430 13 140 0.0 1.6 0.00 0.20 0.18 88
20260506043930 13 139 0.0 3.2 0.00 0.20 0.18 88
20260506043430 13 158 0.0 0.0 0.00 0.20 0.18 88
20260506042930 13 158 0.0 1.6 0.00 0.20 0.18 88
20260506042430 13 188 0.0 3.2 0.00 0.20 0.18 88
20260506041930 13 195 0.0 0.0 0.00 0.20 0.18 88
20260506041430 13 195 0.0 4.8 0.00 0.20 0.18 88
20260506040930 13 167 0.0 3.2 0.00 0.20 0.18 88
20260506040430 13 171 0.0 1.6 0.00 0.20 0.18 88
20260506035930 13 198 0.0 1.6 0.00 0.20 0.18 88
20260506035430 13 163 0.0 4.8 0.00 0.20 0.18 88
20260506034930 13 165 0.0 4.8 0.00 0.20 0.18 87
20260506034430 13 157 0.0 8.0 0.00 0.20 0.18 87
20260506033930 13 181 4.8 8.0 0.00 0.20 0.18 87
20260506033430 13 180 0.0 0.0 0.00 0.20 0.18 87
20260506032930 13 180 0.0 0.0 0.00 0.20 0.18 87
20260506032430 13 180 0.0 0.0 0.00 0.20 0.18 87
20260506031930 13 180 0.0 0.0 0.00 0.20 0.18 87
20260506031430 13 180 0.0 1.6 0.00 0.20 0.18 87
20260506030930 13 194 0.0 1.6 0.00 0.20 0.18 87
20260506030430 13 135 0.0 0.0 0.00 0.20 0.18 87
20260506025930 13 135 0.0 4.8 0.00 0.20 0.18 87
20260506025430 13 130 0.0 0.0 0.00 0.20 0.18 86
20260506024930 13 130 0.0 1.6 0.00 0.20 0.18 86
20260506024430 13 130 0.0 0.0 0.00 0.20 0.18 86
20260506023930 13 130 0.0 0.0 0.00 0.20 0.18 86
20260506023430 13 130 0.0 0.0 0.00 0.20 0.18 86
20260506022930 13 130 0.0 0.0 0.00 0.20 0.18 86
20260506022430 13 130 0.0 0.0 0.00 0.20 0.18 86
20260506021930 13 130 0.0 0.0 0.00 0.20 0.18 86
20260506021430 13 130 0.0 0.0 0.00 0.20 0.18 86
20260506020930 13 130 0.0 0.0 0.00 0.20 0.18 86
20260506020430 13 130 0.0 0.0 0.00 0.20 0.18 86
20260506015930 13 130 0.0 0.0 0.00 0.20 0.18 86
20260506015430 13 130 0.0 0.0 0.00 0.20 0.18 86
20260506014930 13 130 0.0 0.0 0.00 0.20 0.18 86
20260506014430 13 130 0.0 0.0 0.00 0.20 0.18 86
20260506013931 13 130 0.0 0.0 0.00 0.20 0.18 86
20260506013431 13 130 0.0 0.0 0.00 0.20 0.18 86
20260506012931 13 130 0.0 0.0 0.00 0.20 0.18 86
20260506012431 13 130 0.0 0.0 0.00 0.20 0.18 85
20260506011931 13 130 0.0 0.0 0.00 0.20 0.18 85
20260506011431 13 130 0.0 0.0 0.00 0.20 0.18 85
20260506010931 13 130 0.0 0.0 0.00 0.20 0.18 85
20260506010431 13 130 0.0 0.0 0.00 0.20 0.18 85
20260506005931 13 130 0.0 0.0 0.00 0.20 0.18 85
20260506005431 14 130 0.0 0.0 0.00 0.20 0.18 86
20260506004931 14 130 0.0 0.0 0.00 0.20 0.18 86
20260506004431 14 130 0.0 0.0 0.00 0.20 0.18 86
20260506003931 14 130 0.0 0.0 0.00 0.20 0.18 86
20260506003431 14 130 0.0 0.0 0.00 0.20 0.18 86
20260506002931 14 130 0.0 0.0 0.00 0.20 0.18 87
20260506002431 14 130 0.0 0.0 0.00 0.20 0.18 87
20260506001931 15 130 0.0 0.0 0.00 0.20 0.18 87
20260506001431 15 130 0.0 3.2 0.00 0.20 0.18 87
20260506000931 15 146 0.0 6.4 0.00 0.20 0.18 87
20260506000431 15 168 0.0 0.0 0.03 0.20 0.18 87
20260505235931 15 175 0.0 6.4 0.03 0.20 0.18 87
20260505235431 15 191 4.8 4.8 0.03 0.20 0.18 87
20260505234931 15 181 1.6 6.4 0.03 0.20 0.18 87
20260505234431 15 144 0.0 6.4 0.03 0.20 0.18 87